South Alabama Regional At Bill Benton Field Airport
K79J : now visible

Airfield :











YOU CAN JOIN US ON...

 
LOGIN :

Register | Disclaimer

   EN    FR    IT 

 









Legend :    VFR   Marginal VFR   IFR   Intensive IFR   Very Intensive IFR
Visi :
Ceiling :
>= 8 km
>= 3000ft
5 to 8 km
1000 to 3000 ft
1500m to 5 km
500 to 1000 ft
800 to 1500m
200 to 500 ft
< 800m
< 200 ft
Symbols :   Thunderstorms  Fog  Heavy snow  Heavy precipitations  Wind > 20 kt






- Airport Elevation : 310 ft


K79J - South Alabama Regional At Bill Benton Field

CURRENT METAR :
  • 250356Z AUTO 00000KT 10SM CLR 24/22 A2992 RMK AO2 SLP127 T02440217 TSNO $

EXPIRED METARs :
  • 250256Z AUTO 18003KT 10SM FEW049 25/22 A2992 RMK AO2 SLP126 T02500217 53018 TSNO $
  • 250156Z AUTO VRB04KT 10SM BKN055 BKN070 26/21 A2989 RMK AO2 SLP117 T02610211 TSNO $
  • 250056Z AUTO 00000KT 10SM CLR 27/21 A2988 RMK AO2 SLP112 T02720211 TSNO $
  • 242356Z AUTO 00000KT 10SM CLR 28/21 A2987 RMK AO2 SLP108 T02830206 10317 20283 56010 TSNO $

TAF N/A



MET'MAP, your aeronautical weather chart ! - Copyright ORBIFLY December 2007 - Disclaimer

ORBIFLY MET'MAP TEAM :

Programming & Development : Alexandra Zaïnal
Original concept : Baudouin d'Aumeries
Technical & hardware support : Manuel Goepfert
Assistance : Marc-Olivier Méhu




SOURCES & CREDITS :

   NOAA       Earth
Advisory